[ hide orbit diagram ]
For accurate long-term ephemerides, please instead use our Horizons system.This orbit viewer was implemented using two-body methods, and hence should not be used for determining accurate long-term trajectories (over several years or decades) or planetary encounter circumstances.
Orbital Elements at Epoch 2459200.5 (2020-Dec-17.0) TDB
Reference: JPL 26 (heliocentric ecliptic J2000)
Element | Value | Uncertainty (1-sigma) | Units |
e | .1595199530942322 | 5.4392e-08 | |
a | 3.161100197848429 | 2.206e-08 | au |
q | 2.65684164256148 | 1.7552e-07 | au |
i | 3.967812773775873 | 5.3479e-06 | deg |
node | 294.8884206690564 | 7.9771e-05 | deg |
peri | 82.14281709638051 | 8.1653e-05 | deg |
M | 127.7532044265988 | 1.6276e-05 | deg |
tp | 2458472.007438953450 (2018-Dec-19.50743895) | 9.0878e-05 | TDB |
period | 2052.843395622528 5.62 | 2.1489e-05 5.883e-08 | d yr |
n | .1753665188331765 | 1.8357e-09 | deg/d |
Q | 3.665358753135379 | 2.5579e-08 | au |
|
| | Orbit Determination Parameters
Additional Information
|
[ show covariance matrix ]
Physical Parameter Table
Parameter |
Symbol |
Value |
Units |
Sigma |
Reference |
Notes |
absolute magnitude |
H |
15.09 |
|
n/a |
E2021B55 |
|
|
193826 (2001 QM32) Discovered 2001-Aug-17 by LINEAR at Socorro |
Reference: 20081113/Numbers.arc | Last Updated: 2008-11-17 |
|
[ show close-approach data ]
|